Bremerton, WA

3:39 AM PST on December 11, 2019 (GMT -0800)
Bremerton National

Weather History for KPWT - August, 2019

Change the Weather History Date:

Saturday, August 10, 2019

  Actual Average Record
Temperature  
Mean Temperature 65 °F -  
Max Temperature 75 °F 75 °F 91 °F (2017)
Min Temperature 57 °F 50 °F 46 °F (2011)
Growing Degree Days 15 (Base 50)    
Moisture  
Dew Point 58 °F    
Average Humidity 85    
Maximum Humidity 100    
Minimum Humidity 55    
Precipitation  
Precipitation 0.36 in - - ()
Sea Level Pressure  
Sea Level Pressure 30.00 in    
Wind  
Wind Speed 3 mph (NE)    
Max Wind Speed 12 mph    
Max Gust Speed -    
Visibility 9 miles    
Events Rain    
Averages and records for this station are not official NWS values.
T = Trace of Precipitation, MM = Missing Value Source: NWS Daily Summary

Daily Weather History Graph

Daily Weather History Graph

Search for Another Location

Airport or City:

Astronomy

Aug. 10, 2019 Rise Set
Actual Time 6:00 AM PDT 8:31 PM PDT
Civil Twilight 5:25 AM PDT 9:05 PM PDT
Nautical Twilight 4:42 AM PDT 9:49 PM PDT
Astronomical Twilight 3:51 AM PDT 10:39 PM PDT
Moon 5:28 PM PDT (8/10) 1:34 AM PDT (8/10)
Length of Visible Light 15h 40m
Length of Day
14h 31m
Waxing Gibbous, 80% of the Moon is Illuminated
Aug 10
Waxing Gibbous
Aug 15
Full
Aug 23
Last Quarter
Aug 30
New
Sep 5
First Quarter

Hourly Weather History & Observations

Time (PDT) Temp. Dew Point Humidity Pressure Visibility Wind Dir Wind Speed Gust Speed Precip Events Conditions
12:56 AM 63.0 °F 57.0 °F 81% 30.02 in 10.0 mi Calm Calm - N/A   Mostly Cloudy
1:56 AM 62.1 °F 57.0 °F 84% 30.00 in 10.0 mi Calm Calm - 0.00 in   Scattered Clouds
2:56 AM 59.0 °F 57.9 °F 96% - 10.0 mi SE 3.5 mph - 0.04 in   Clear
3:56 AM 57.9 °F 57.0 °F 97% 29.98 in 9.0 mi Calm Calm - N/A   Clear
4:56 AM 57.9 °F 57.0 °F 97% 30.00 in 10.0 mi NNE 3.5 mph - N/A   Scattered Clouds
5:56 AM 57.9 °F 55.9 °F 93% 30.01 in 9.0 mi NNE 3.5 mph - 0.03 in Rain Rain
6:56 AM 57.9 °F 57.0 °F 97% 30.02 in 2.5 mi Calm Calm - 0.15 in Rain Rain
7:15 AM 57.2 °F 57.2 °F 100% 29.97 in 5.0 mi Calm Calm - 0.04 in Rain Light Rain
7:27 AM 57.2 °F 57.2 °F 100% 29.98 in 5.0 mi East 4.6 mph - 0.06 in Rain Light Rain
7:31 AM 57.2 °F 57.2 °F 100% 29.98 in 5.0 mi Calm Calm - 0.07 in Rain Rain
7:46 AM 57.2 °F 57.2 °F 100% 29.98 in 8.0 mi East 5.8 mph - 0.08 in Rain Light Rain
7:56 AM 57.9 °F 57.0 °F 97% 30.02 in 10.0 mi ENE 5.8 mph - 0.08 in Rain Light Rain
8:16 AM 57.2 °F 55.4 °F 94% 29.98 in 10.0 mi Calm Calm - 0.01 in Rain Light Rain
8:29 AM 57.2 °F 55.4 °F 94% 29.98 in 10.0 mi NE 4.6 mph - 0.01 in Rain Light Rain
8:56 AM 57.0 °F 55.9 °F 96% 30.03 in 9.0 mi NE 3.5 mph - 0.03 in Rain Light Rain
9:56 AM 59.0 °F 57.9 °F 96% 30.03 in 10.0 mi Calm Calm - 0.03 in   Mostly Cloudy
10:09 AM 60.8 °F 59.0 °F 94% 29.98 in 10.0 mi Calm Calm - N/A   Mostly Cloudy
10:47 AM 60.8 °F 59.0 °F 94% 29.99 in 10.0 mi Calm Calm - N/A   Mostly Cloudy
10:56 AM 63.0 °F 60.1 °F 90% 30.03 in 10.0 mi WSW 3.5 mph - N/A   Mostly Cloudy
11:24 AM 64.4 °F 59.0 °F 83% 29.98 in 10.0 mi West 3.5 mph - N/A   Mostly Cloudy
11:41 AM 66.2 °F 60.8 °F 83% 29.98 in 10.0 mi WNW 3.5 mph - N/A   Mostly Cloudy
11:56 AM 66.0 °F 60.1 °F 81% 30.03 in 10.0 mi Calm Calm - N/A   Overcast
12:14 PM 66.2 °F 60.8 °F 83% 29.99 in 10.0 mi West 5.8 mph - N/A   Overcast
12:56 PM 68.0 °F 60.1 °F 76% 30.03 in 10.0 mi Calm Calm - N/A   Overcast
1:56 PM 71.1 °F 59.0 °F 66% 30.01 in 10.0 mi SW 6.9 mph - N/A   Mostly Cloudy
2:04 PM 69.8 °F 59.0 °F 68% 29.97 in 10.0 mi Calm Calm - N/A   Scattered Clouds
2:13 PM 71.6 °F 59.0 °F 64% 29.97 in 10.0 mi Variable 3.5 mph - N/A   Mostly Cloudy
2:39 PM 73.4 °F 59.0 °F 61% 29.96 in 10.0 mi NW 3.5 mph - N/A   Overcast
2:56 PM 72.0 °F 57.9 °F 61% 30.00 in 10.0 mi SSW 3.5 mph - N/A   Overcast
3:56 PM 73.9 °F 57.0 °F 55% 29.99 in 10.0 mi NW 5.8 mph - N/A   Overcast
4:56 PM 71.1 °F 60.1 °F 68% 29.99 in 10.0 mi ENE 6.9 mph - N/A   Overcast
5:56 PM 70.0 °F 61.0 °F 73% 30.00 in 10.0 mi NE 11.5 mph - N/A   Mostly Cloudy
6:56 PM 68.0 °F 60.1 °F 76% 30.00 in 10.0 mi NE 9.2 mph - N/A   Partly Cloudy
7:56 PM 66.0 °F 59.0 °F 78% 30.00 in 10.0 mi NE 6.9 mph - N/A   Clear
8:56 PM 64.0 °F 57.9 °F 80% 30.02 in 10.0 mi NE 4.6 mph - N/A   Overcast
9:47 PM 62.6 °F 57.2 °F 82% 30.00 in 10.0 mi ENE 6.9 mph - 0.00 in Rain Light Rain
9:56 PM 62.1 °F 57.0 °F 84% - 10.0 mi ENE 6.9 mph - 0.00 in Rain Light Rain
10:03 PM 62.6 °F 57.2 °F 82% 30.00 in 10.0 mi ENE 8.1 mph - 0.00 in Rain Light Rain
10:29 PM 60.8 °F 57.2 °F 88% 30.01 in 10.0 mi ENE 4.6 mph - 0.00 in   Overcast
10:56 PM 61.0 °F 57.9 °F 90% 30.05 in 8.0 mi Calm Calm - 0.00 in   Overcast
11:20 PM 59.0 °F 55.4 °F 88% 30.00 in 10.0 mi SW 3.5 mph - N/A   Scattered Clouds
11:56 PM 57.9 °F 57.0 °F 97% 30.05 in 10.0 mi Calm Calm - N/A   Scattered Clouds